GFSFLT1_850_dewp_072.txt.gz
Dewpoint
10 9 8 8 8 6 4 4 3 3 2 3 5 7 6 6 7 7 8 6 6 8 8 8 8 8 7 6 5 4 1 0
8 8 9 8 5 3 3 4 6 8 8 8 8 7 6 7 6 7 7 6 9 6 8 9 8 8 7 7 5 4 1 1
7 7 7 5 4 6 8 8 9 8 7 7 7 5 5 6 8 9 8 8 9 8 8 9 7 8 7 6 6 4 1 2
8 7 6 7 6 7 8 9 9 7 8 9 7 6 6 6 8 9 7 8 11 8 6 9 8 8 7 7 6 5 2 3
8 8 8 7 7 7 8 8 9 9 8 8 7 6 6 6 7 8 8 7 11 10 7 9 8 7 7 7 6 6 3 3
7 7 8 8 8 8 8 8 8 8 7 9 7 7 6 6 7 9 9 8 10 10 9 9 9 7 7 6 6 5 3 3
6 7 7 9 8 8 9 9 8 8 9 8 9 8 7 7 9 8 8 8 7 8 8 9 8 8 8 7 5 4 4 4
6 6 6 6 7 8 9 9 8 9 10 10 8 10 8 8 8 9 9 9 9 6 5 9 9 8 8 7 5 5 4 4
4 4 7 6 6 8 8 9 9 9 9 10 10 8 10 9 8 10 9 9 8 9 8 8 9 8 7 6 5 5 4 3
2 4 3 5 6 7 8 9 9 9 9 9 10 11 10 10 10 10 9 10 9 9 8 8 8 7 6 6 5 5 4 2
1 1 4 4 5 6 7 8 9 9 9 9 10 11 11 11 11 9 8 9 10 9 9 9 8 7 6 5 5 5 4 2
1 1 2 5 5 6 7 8 9 10 10 10 10 11 11 11 11 9 9 9 9 9 8 8 7 6 6 5 4 3 3 3
1 1 2 2 5 7 8 8 10 10 9 9 10 11 10 11 11 10 9 9 9 8 8 7 7 6 5 4 4 3 3 2
-1 2 3 3 4 6 7 10 10 10 10 9 10 11 9 10 10 10 9 8 8 7 7 6 4 4 4 4 3 2 2 2
-3 1 3 5 5 6 7 9 9 10 9 9 10 10 10 10 9 9 9 8 7 7 6 4 5 4 3 2 2 1 -0 -1
-5 -3 4 6 7 8 8 9 9 9 10 10 10 10 10 9 9 8 8 7 6 5 5 4 3 2 2 2 1 0 0 -1
-2 -3 5 8 10 10 10 10 10 10 10 10 10 10 9 8 8 7 7 5 5 4 3 3 2 2 1 0 -1 -3 -2 -2
3 2 8 9 10 10 10 10 10 9 9 9 9 8 7 7 6 5 5 4 4 3 2 1 -1 -3 -2 -1 -3 -6 -10 -13
5 7 10 10 9 9 9 8 8 8 8 8 7 7 6 5 5 4 3 2 2 1 -0 -1 -1 -2 -3 -4 -5 -8 -12 -15

GFSFLT1_850_dewp_075.txt.gz
Dewpoint
8 9 8 8 8 8 7 7 7 7 6 5 3 2 2 1 2 1 1 2 5 6 5 8 8 7 7 7 7 6 4 2
6 8 8 8 8 7 7 5 5 4 4 3 2 2 3 6 7 6 6 5 0 5 5 7 8 8 7 7 7 6 4 1
7 6 8 7 4 3 2 2 1 2 2 2 3 4 5 6 7 6 7 7 6 4 4 8 8 8 8 7 7 6 4 2
8 6 5 4 3 3 4 5 6 5 3 5 7 8 6 5 7 7 7 7 6 4 6 8 8 9 8 7 7 6 6 5
8 7 3 2 3 5 6 7 7 6 6 6 7 7 7 5 4 6 6 7 7 6 6 8 8 8 8 7 7 7 6 6
7 7 7 3 3 5 7 8 9 8 6 7 8 7 7 6 6 7 8 9 8 7 6 7 9 8 9 7 7 7 7 5
8 7 7 7 6 5 7 8 8 9 8 8 8 8 7 6 7 6 7 8 8 8 8 8 9 9 9 8 7 7 7 5
7 8 8 7 7 7 7 8 9 9 8 7 8 8 7 6 5 6 7 7 8 8 8 6 8 8 9 9 8 7 7 5
7 7 8 8 7 7 7 8 8 8 9 8 8 8 8 7 7 7 8 8 8 7 7 6 6 7 9 9 8 7 6 6
5 7 7 7 7 7 7 8 9 8 8 9 9 9 8 8 7 8 8 8 8 8 8 9 9 8 9 9 8 7 5 5
6 6 6 6 6 6 6 7 7 7 8 8 9 10 9 9 8 9 8 8 8 8 9 9 8 8 8 8 7 7 6 5
-1 2 5 5 6 6 6 6 8 8 8 7 9 10 10 10 10 10 11 8 7 9 9 8 8 8 8 7 7 6 6 5
-2 -2 2 5 7 6 6 7 8 7 8 9 8 9 10 10 10 10 8 8 10 10 9 8 8 8 7 7 6 6 5 4
-0 -2 -4 3 6 6 7 8 8 7 8 9 9 9 10 9 9 9 8 9 9 9 8 7 7 6 6 6 5 4 4 3
-1 0 -1 -4 5 8 8 9 9 10 10 9 9 9 9 9 9 10 9 9 9 8 8 7 7 6 5 5 4 4 3 2
-3 0 2 3 2 2 8 10 9 9 8 9 9 9 9 9 10 9 9 9 8 8 7 6 5 5 4 4 3 2 1 0
-3 1 4 5 5 3 5 7 9 9 10 10 10 10 10 10 9 9 8 8 7 6 5 5 4 4 3 2 2 1 -0 -1
-2 3 5 6 7 7 7 8 8 9 10 10 10 9 9 8 8 8 7 6 5 5 4 3 3 2 1 -0 -2 -4 -5 -6
2 4 7 8 9 9 9 10 10 10 10 9 9 8 8 7 7 6 5 5 4 3 2 0 -1 -2 -2 -2 -3 -4 -6 -9

GFSFLT1_850_dewp_078.txt.gz
Dewpoint
9 9 9 9 8 9 9 9 9 8 4 0 1 5 6 1 1 1 6 8 6 -0 2 5 7 7 7 7 7 7 6 5
8 8 9 9 8 8 9 9 8 8 6 5 6 8 2 2 1 5 3 2 1 0 2 7 9 8 7 7 7 7 6 5
7 7 8 8 7 7 8 8 9 9 8 6 6 7 3 2 2 2 1 -2 -2 -0 4 6 6 7 8 8 7 7 7 4
4 6 7 7 7 7 6 6 6 7 6 5 4 3 3 2 1 1 1 0 6 6 2 2 4 6 8 8 7 7 7 6
3 2 3 2 2 2 2 2 3 3 3 2 2 2 2 4 5 5 6 6 6 7 6 5 4 6 7 8 8 8 7 6
6 3 0 1 1 2 2 2 1 1 2 2 2 3 3 5 6 5 6 7 6 5 6 5 5 6 7 7 8 9 7 7
7 6 2 1 1 3 4 5 5 4 3 4 5 5 5 3 2 4 4 4 6 6 8 7 7 6 6 7 9 9 7 7
8 7 6 2 2 2 4 5 7 7 7 6 5 5 4 5 4 4 4 5 6 7 8 8 8 8 6 7 9 9 8 8
7 6 7 6 4 3 3 6 6 8 9 8 7 7 7 7 7 6 6 6 6 6 6 8 8 9 8 9 9 8 8 8
7 6 7 7 6 6 5 4 6 7 7 8 9 8 7 7 8 7 6 5 5 6 7 8 8 8 9 9 9 8 8 8
7 7 7 7 6 6 6 5 4 5 7 8 8 8 8 8 8 8 7 6 6 7 7 8 8 8 9 8 8 8 8 8
5 6 7 6 7 7 7 7 7 7 7 8 8 8 8 9 9 9 9 8 8 8 9 9 8 8 8 7 8 7 7 7
2 4 5 6 6 7 8 8 7 8 7 7 8 8 8 8 9 9 8 10 8 5 6 8 9 8 7 7 8 6 6 6
-1 1 2 3 4 6 8 8 7 7 9 9 9 9 9 8 8 9 9 8 6 5 9 9 9 7 7 7 6 6 5 5
-1 1 0 -2 -2 3 6 6 6 7 7 8 8 9 8 9 9 8 8 8 8 9 9 9 7 7 6 6 6 5 4 4
0 1 2 0 1 3 6 7 7 7 8 8 8 8 9 10 10 9 9 10 10 9 8 7 7 7 7 6 5 4 4 3
-3 -3 2 3 1 -0 2 6 7 8 9 9 9 9 10 10 10 10 10 9 8 8 8 7 7 6 5 4 4 4 2 1
-3 -3 -3 3 3 3 4 6 8 10 10 10 10 10 10 10 10 9 8 8 8 7 7 6 5 4 4 3 3 2 1 0
-1 -3 -0 3 5 6 7 9 9 9 9 10 10 10 9 9 8 8 8 7 7 6 5 4 4 3 3 2 1 -2 -3 -5

GFSFLT1_850_dewp_084.txt.gz
Dewpoint
8 8 8 8 9 9 10 9 9 8 8 8 7 5 5 6 4 7 3 3 3 2 2 3 3 4 5 5 6 6 6 6
8 8 8 8 9 9 9 9 9 9 8 7 6 6 5 4 4 4 5 6 3 2 3 3 3 2 4 5 6 7 7 6
9 9 8 8 9 9 9 9 9 9 8 7 6 3 6 7 7 6 5 4 2 3 3 3 3 4 5 6 6 6 7 7
7 8 8 8 8 8 8 8 9 8 8 7 8 6 5 8 7 3 5 5 5 4 6 6 4 6 7 7 6 6 7 7
5 4 5 6 7 8 8 8 9 9 8 7 5 5 4 7 5 5 7 5 4 5 5 2 1 4 4 4 6 6 8 8
4 3 1 4 7 8 9 8 8 8 8 6 7 7 4 3 4 7 6 5 3 3 1 -0 2 3 4 6 4 5 7 7
5 5 2 1 5 6 6 7 8 8 8 7 7 7 5 5 4 5 2 1 2 2 2 2 2 2 5 6 6 7 7 6
6 6 3 1 2 4 4 6 6 7 7 7 6 4 5 4 3 3 2 1 2 2 2 2 2 1 4 6 6 7 8 7
6 6 6 2 1 1 0 0 3 5 6 7 7 7 6 5 5 5 3 1 1 2 2 1 1 1 2 3 6 7 7 8
5 6 6 5 1 -0 -1 -1 -1 -1 0 2 4 5 5 6 5 5 5 3 1 1 1 0 0 1 4 5 5 6 7 9
6 6 6 6 5 2 0 -0 0 0 -0 -1 -0 -0 0 1 1 0 1 1 1 2 3 4 6 7 7 7 7 8 8 7
4 4 5 6 7 6 4 2 1 1 2 2 2 1 1 2 2 3 3 3 4 5 6 7 8 9 7 7 8 9 7 6
-1 3 4 5 5 6 6 5 3 2 2 1 1 2 4 5 5 6 7 7 8 8 9 9 9 8 6 7 8 9 7 6
1 2 1 2 3 5 5 6 6 5 4 3 3 3 4 4 6 7 7 7 8 8 9 10 10 6 8 7 8 6 5 7
-1 2 1 1 1 2 2 3 5 6 6 6 6 5 5 5 5 5 6 7 8 8 9 10 10 10 10 8 5 5 7 8
-2 -1 -2 -2 0 -0 -0 0 3 4 6 6 6 7 7 7 7 7 7 8 9 10 10 9 9 9 9 8 6 7 8 8
-5 -4 -3 -3 -3 -2 0 1 2 5 6 7 7 8 8 8 8 9 9 10 10 9 9 9 10 9 9 8 9 8 7 7
-4 -5 -5 -3 -2 -1 1 1 3 5 6 7 8 9 9 9 9 10 10 10 9 9 9 9 8 8 8 8 8 7 7 5
-5 -5 -3 -1 -1 0 1 2 4 5 7 8 8 9 10 10 10 9 9 9 9 9 9 9 8 8 7 7 7 5 4 3

GFSFLT1_850_dewp_090.txt.gz
Dewpoint
9 9 9 8 9 10 10 10 10 10 10 10 10 10 10 7 6 5 1 0 1 0 2 2 2 4 4 5 5 5 4 2
9 9 8 8 9 9 10 10 10 9 10 10 9 9 8 8 7 4 2 1 2 4 4 4 5 5 5 6 6 6 6 5
8 9 8 9 9 9 9 9 9 9 9 10 10 9 7 7 6 5 3 3 4 5 4 5 4 4 4 5 6 6 6 6
8 8 9 9 9 9 9 9 10 9 9 9 9 8 8 8 7 7 3 3 2 3 3 3 4 4 4 5 5 5 7 6
7 8 8 9 8 8 9 9 9 9 9 9 8 8 7 7 7 5 5 3 6 4 4 4 4 3 4 3 4 4 6 7
7 8 8 8 9 8 8 8 9 9 8 8 8 8 9 8 6 4 4 6 5 4 4 3 3 3 3 5 4 4 6 8
6 7 8 8 9 9 8 8 8 9 9 8 8 8 8 8 7 4 3 5 4 3 3 3 3 3 3 3 4 6 6 5
7 7 7 7 7 8 8 8 8 8 9 9 8 8 7 8 7 6 6 5 4 4 4 3 3 4 5 6 5 4 4 6
7 6 8 7 7 6 6 8 8 8 8 9 9 9 7 8 7 7 6 5 6 5 5 5 4 7 6 6 3 5 7 7
6 7 7 8 7 8 6 7 8 8 8 8 9 8 9 8 7 8 8 7 7 7 7 5 6 6 6 4 7 7 7 7
5 7 7 8 7 6 3 5 7 8 8 8 8 8 9 8 8 7 7 7 7 7 7 4 6 6 6 7 7 7 4 4
5 6 7 8 8 7 1 -1 2 5 8 8 8 9 8 8 8 8 7 7 7 7 6 5 5 6 7 7 7 4 3 5
6 6 7 8 8 8 5 0 -1 0 6 8 7 8 8 8 8 8 8 8 8 8 7 7 7 8 7 7 2 2 3 4
5 6 7 7 8 8 8 6 2 0 3 3 4 3 3 4 5 6 7 7 7 8 8 8 6 6 7 2 2 5 8 9
3 5 6 7 8 8 8 8 7 5 3 4 2 1 1 2 1 2 4 2 2 3 2 4 4 5 7 8 7 8 9 9
1 3 5 6 7 7 7 8 7 7 7 6 4 4 3 3 2 2 1 2 2 2 5 8 9 8 8 8 9 9 9 9
-2 -1 3 5 5 1 2 2 5 6 7 7 8 7 6 5 5 4 5 6 7 8 8 8 7 9 9 9 9 9 9 9
-2 -2 -1 2 -1 2 7 4 4 4 5 6 6 7 8 8 8 8 8 8 8 8 8 9 9 9 9 9 9 8 8 7
-2 -2 -1 -1 -2 3 4 6 4 5 5 6 7 7 7 8 8 8 8 8 9 9 9 9 9 9 9 8 8 7 6 5

GFSFLT1_850_dewp_093.txt.gz
Dewpoint
9 9 9 10 9 9 10 10 10 10 10 10 10 10 10 10 10 9 6 3 4 7 7 6 5 3 4 4 4 5 4 3
8 9 9 10 9 10 10 10 9 10 10 10 10 10 10 10 10 6 5 5 6 6 2 0 -1 0 2 3 5 5 5 4
8 9 9 10 9 10 10 9 9 10 10 10 10 10 10 10 8 6 5 4 4 -0 -2 -0 0 3 5 6 6 6 6 5
7 8 9 10 9 9 9 10 10 9 10 10 10 9 9 7 6 4 4 3 3 2 4 4 6 6 6 5 6 5 6 6
6 8 8 9 10 9 9 9 9 9 10 10 9 9 7 6 4 4 4 4 4 5 6 6 5 5 7 4 4 5 7 8
6 7 7 9 10 10 9 9 9 9 9 9 9 8 7 7 7 6 5 4 3 5 4 6 6 4 5 3 5 4 7 6
5 6 6 8 10 10 10 9 9 9 9 9 9 9 7 7 7 5 5 5 5 4 6 6 7 6 4 4 5 5 4 6
5 6 6 7 9 10 10 9 9 9 9 9 8 8 8 7 5 6 6 5 4 4 7 7 6 5 5 6 6 4 4 5
5 6 6 6 9 9 9 9 9 8 9 9 9 8 9 8 7 6 6 5 6 6 5 5 7 7 7 8 7 4 6 7
5 5 7 6 7 8 9 9 9 9 9 9 9 8 8 8 8 7 6 4 5 6 5 4 5 7 7 8 6 5 7 7
4 5 7 7 7 8 8 8 8 9 9 9 9 8 8 8 8 8 7 6 5 6 5 6 5 5 6 6 6 8 7 7
3 4 6 8 7 7 8 8 7 8 9 9 9 9 9 8 8 8 7 8 8 7 7 7 7 7 7 8 8 7 7 7
3 3 5 7 8 7 8 8 7 7 8 9 9 9 9 9 9 8 8 8 8 8 7 7 7 7 7 7 7 7 7 8
3 4 4 7 7 8 8 8 7 7 7 8 9 9 9 9 9 9 9 8 8 8 8 8 7 7 8 8 8 8 7 8
1 3 4 5 7 8 8 8 8 7 7 8 8 9 9 9 9 9 8 9 9 9 9 8 8 8 8 8 8 8 8 7
-3 1 4 5 6 7 8 8 9 8 8 8 8 9 9 9 9 9 9 9 9 9 9 9 9 8 8 8 8 8 9 9
-2 -1 2 4 5 7 8 8 9 9 8 8 8 8 9 9 9 9 9 9 9 8 8 8 8 8 9 9 9 9 9 9
-3 -2 -2 0 3 6 7 8 8 9 9 8 8 8 8 8 8 8 8 9 8 8 8 8 8 9 9 9 9 9 8 8
-2 -2 -2 -2 -0 4 6 7 8 9 9 9 9 8 8 8 8 8 8 8 8 9 9 9 9 9 8 8 8 8 7 6